Location: Almhorst
(52.3789°N, 9.5662°E)
Time: 23:03:45
(UTC+00:00)

Daily predictions for brighter satellites

Satellite Brightness Start Highest point End
(mag) Time Altitude Azimuth Time Altitude Azimuth Time Altitude Azimuth
Cosmos 773 Rocket 4.2 15:37:26 10° NNW 15:42:41 80° WSW 15:47:55 10° SSE
Cosmos 1602 Rocket 3.9 15:40:04 10° N 15:44:18 45° ENE 15:48:28 10° SSE
JB-3 4.3 15:40:51 10° NNE 15:44:26 55° E 15:47:59 10° S
NOSS 2-2 (E) 2.9 15:42:32 10° SSW 15:45:46 60° SE 15:48:45 10° NE
Cosmos 1315 Rocket 3.0 15:42:27 10° SSW 15:46:16 69° WNW 15:50:06 10° N
Cosmos 1486 Rocket 4.2 15:44:55 10° S 15:49:59 55° ESE 15:55:08 10° NNE
SL-16 R/B 2.8 15:44:11 10° NNE 15:50:15 50° E 15:56:14 10° S
YAOGAN 1 4.4 15:50:25 10° ENE 15:51:43 11° NE 15:53:00 10° NE
Okean 1-7 Rocket 4.1 15:47:36 10° N 15:51:43 38° ENE 15:55:48 10° SE
BREEZE M DEB (TANK) 4.3 15:53:20 10° S 15:54:40 13° SSE 15:55:46 10° SE
Cosmos 405 Rocket 3.3 15:52:59 10° NNW 15:56:09 49° W 15:59:15 10° S
NOSS 2-2 (C) 3.4 15:55:14 10° WSW 15:58:12 43° NW 16:01:08 10° NE
Cosmos 1461 3.2 15:54:38 10° SSW 15:58:22 47° SE 16:02:11 10° NE
Cosmos 1844 Rocket 4.1 15:55:58 10° NNW 15:59:53 19° NNE 16:03:46 10° ENE
Cosmos 2219 3.9 15:55:15 10° NNW 16:00:28 34° NE 16:05:41 10° ESE
ATLAS CENTAUR R/B 4.2 16:00:20 10° WNW 16:02:33 17° WSW 16:04:43 10° SSW
Cosmos 1980 Rocket 3.6 16:00:03 10° SE 16:03:51 19° E 16:07:35 10° ENE
CORIOLIS 4.2 15:58:50 10° SE 16:04:00 54° ENE 16:09:13 10° N
Cosmos 1634 Rocket 4.2 15:59:56 10° SSW 16:06:06 77° WNW 16:12:18 10° N
NOSS 3-2 (A) 3.3 16:01:31 10° SW 16:06:43 78° NW 16:13:06 10° NE
Cosmos 1953 Rocket 4.5 16:05:01 10° N 16:08:50 28° ENE 16:12:40 10° SE
Cosmos 2263 Rocket 2.4 16:03:38 10° NNW 16:09:08 49° NE 16:14:39 10° SE
NOSS 3-2 (C) 3.4 16:05:07 10° SSW 16:10:06 58° SE 16:15:56 11° NE
Cosmos 1867 3.9 16:05:31 10° NW 16:10:59 73° SW 16:16:24 10° SSE
IRIDIUM 106 4.4 16:07:21 10° N 16:12:33 59° E 16:17:41 10° SSE
ARIANE 5 R/B 2.7 16:09:12 10° SE 16:14:04 48° ENE 16:19:02 10° N
Meteor 1-5 Rocket 4.4 16:09:03 10° N 16:14:09 43° ENE 16:19:21 10° SE
Cosmos 2279 Rocket 4.0 16:08:34 10° S 16:14:48 89° E 16:21:06 10° N
IRS-1C 4.3 16:09:45 10° SE 16:14:53 50° ENE 16:20:00 10° N
Cosmos 1825 Rocket 3.7 16:12:42 10° N 16:16:56 48° ENE 16:21:06 10° SSE
Cosmos 1943 Rocket 4.2 16:17:56 10° NNW 16:19:24 11° N 16:20:52 10° NNE
Cosmos 1758 Rocket 4.4 16:17:02 10° NNW 16:21:14 54° W 16:25:23 10° S
Meteor 1-25 Rocket 4.2 16:15:42 10° N 16:21:32 71° ENE 16:27:16 10° SSE
Cosmos 1076 Rocket 4.0 16:20:01 10° N 16:24:04 38° ENE 16:28:06 10° SE
Cosmos 2098 Rocket 3.3 16:19:56 10° S 16:24:23 87° W 16:29:38 10° N
Cosmos 1655 Rocket 4.2 16:18:28 10° N 16:24:32 48° ENE 16:30:30 10° SE
Lacrosse 4 Rocket 3.3 16:21:50 10° W 16:24:50 20° NNW 16:27:49 10° NNE
SAR-Lupe-4 3.8 16:23:15 10° SE 16:26:39 46° ENE 16:30:05 10° N
Cosmos 1782 3.1 16:23:49 10° SSW 16:27:22 59° WNW 16:30:56 10° N
Cosmos 1933 3.5 16:23:58 10° SSE 16:27:38 46° E 16:31:20 10° NNE
Meteor 1-28 Rocket 2.8 16:25:47 10° NNE 16:29:10 77° ESE 16:32:29 10° S
Cosmos 2227 Rocket 2.3 16:23:39 10° NNW 16:29:20 85° WSW 16:34:59 10° SSE
Cosmos 44 Rocket 4.4 16:25:41 10° NW 16:30:07 29° NNE 16:33:16 16° ENE
Resurs 01 Rocket 3.7 16:34:29 10° NNE 16:34:29 10° NNE 16:34:30 10° NNE
Cosmos 2369 Rocket 4.2 16:30:00 10° WNW 16:33:55 19° NNW 16:37:53 10° NNE
SPOT 1/Viking Rocket 3.9 16:33:06 10° SE 16:37:56 40° ENE 16:42:46 10° N
SAR-Lupe-1 4.1 16:35:45 10° SSE 16:39:16 56° ENE 16:42:50 10° N
SJ-12 3.7 16:35:47 10° SSE 16:39:30 61° ENE 16:43:15 10° N
CENTAUR R/B 3.5 16:36:24 10° W 16:42:25 43° NNW 16:48:30 15° NE
Cosmos 1697 Rocket 2.7 16:37:09 10° SSW 16:42:42 68° ESE 16:47:33 14° NE
CZ-2D R/B 2.6 16:41:44 10° SSE 16:44:51 70° ENE 16:48:00 10° N
Cosmos 1538 Rocket 4.0 16:40:03 10° NNW 16:45:20 70° ENE 16:50:39 10° SSE
NOSS 2-3 (C) 3.9 16:43:29 10° S 16:46:35 31° ESE 16:47:48 25° E
NOSS 3 (A) 4.4 16:44:27 10° NW 16:46:43 67° SW 16:49:39 10° SE
Cosmos 2058 Rocket 3.9 16:43:32 10° SSE 16:47:22 29° E 16:49:15 21° NE
Cosmos 2266 Rocket 4.2 16:42:08 10° NNW 16:48:16 73° W 16:54:17 10° S
Cosmos 2278 Rocket 4.2 16:46:52 10° NNW 16:48:46 12° N 16:50:40 10° NNE
Cosmos 1606 Rocket 3.5 16:49:11 10° S 16:53:37 80° E 16:58:04 10° NNE
Cosmos 1503 Rocket 4.2 16:51:02 10° SSW 16:56:15 71° WNW 17:01:10 12° NNE
Lacrosse 5 rocket 1.7 16:54:11 10° WNW 16:57:42 38° N 16:58:50 30° NE
UNK 3.7 16:53:23 10° NNE 16:58:01 89° SE 17:02:34 10° SSW
CZ-4C R/B 4.2 16:52:45 10° NW 16:59:21 44° WSW 17:07:19 10° S
Thor Agena Rocket 4.5 16:56:24 10° S 17:01:27 51° W 17:06:28 10° NNW
IRS-P3 4.0 16:58:41 10° SSE 17:04:00 84° ENE 17:09:21 10° NNW
NOSS 2-3 (D) 3.3 17:02:16 10° SSW 17:05:52 56° SE 17:07:03 37° ENE
NOSS 2-3 (E) 3.2 17:02:54 10° SSW 17:06:30 61° SE 17:07:43 38° ENE
Cosmos 1354 Rocket 4.1 17:01:59 10° SSW 17:07:14 80° WNW 17:11:39 15° NNE
Resurs 1-3 3.8 17:04:01 10° SE 17:08:05 43° ENE 17:12:10 10° N
CZ-4 R/B 4.2 17:04:48 10° SSE 17:08:42 64° ENE 17:12:37 10° N
NOSS 2-2 (D) 4.4 17:06:40 10° W 17:09:14 24° NNW 17:10:10 20° N
Cosmos-2242 3.3 17:06:27 10° SSE 17:10:26 41° E 17:11:24 35° ENE
MOS 1 Rocket 3.6 17:06:00 10° SSE 17:11:01 82° WSW 17:16:20 10° NNW
USA 238 DEB 3.7 17:05:24 10° SSW 17:11:21 54° SE 17:14:48 27° ENE
Cosmos 1844 4.3 17:06:15 10° NNW 17:11:21 34° NE 17:12:42 30° ENE
USA 238 3.7 17:05:31 10° SSW 17:11:27 53° SE 17:14:54 27° ENE
Meteor 2-20 4.4 17:06:04 10° S 17:12:10 68° E 17:18:16 10° NNE
Spot 4 Rocket 4.0 17:09:45 10° SE 17:14:45 57° ENE 17:19:47 10° N
SJ-7 4.4 17:14:36 45° E 17:14:47 45° ENE 17:18:25 10° N
Cosmos 1898 Rocket 3.8 17:10:07 10° S 17:14:57 42° ESE 17:16:31 33° ENE
Gbstr 26 Del rocket 2.9 17:11:35 10° WSW 17:15:33 57° SSE 17:16:29 42° ESE
USA 215 3.4 17:12:07 26° ENE 17:15:52 60° N 17:22:18 10° WNW
Cosmos 1726 Rocket 3.7 17:11:32 10° SSW 17:16:10 84° WNW 17:20:37 11° N
Cosmos 1553 Rocket 4.3 17:10:57 10° SSE 17:16:44 43° E 17:22:37 10° NNE
Cosmos 372 Rocket 4.0 17:12:35 10° S 17:17:34 53° ESE 17:19:40 32° NE
Cosmos 2082 3.6 17:12:10 10° NNW 17:17:55 78° ENE 17:23:39 10° SE
Cosmos 2112 Rocket 4.3 17:13:00 10° NNW 17:17:57 41° NE 17:19:27 33° E
Cosmos 1805 2.7 17:16:42 10° N 17:20:04 67° ENE 17:23:24 10° SSE
SMAP 4.5 17:15:41 10° SSW 17:20:04 40° W 17:24:29 10° NNW
IRAS Rocket 4.2 17:15:42 10° SE 17:21:02 56° ENE 17:26:24 10° NNW
GEOS 3 Rocket 3.6 17:19:09 30° NE 17:21:58 78° SE 17:27:21 10° SW
YAOGAN 1 2.4 17:22:32 10° SSE 17:26:45 65° ENE 17:31:00 10° N
Cosmos 923 Rocket 3.8 17:21:39 10° NNW 17:26:52 70° ENE 17:32:01 10° SSE
Cosmos 2227 4.3 17:23:21 10° NNW 17:28:52 49° NE 17:30:31 38° E
Cosmos 1745 Rocket 4.2 17:24:19 10° N 17:30:12 43° ENE 17:34:25 18° SE
Cosmos 1937 Rocket 3.8 17:25:39 10° S 17:30:31 43° ESE 17:30:51 42° E
SL-16 R/B 4.0 17:28:09 10° SSE 17:29:26 15° SE 17:29:26 15° SE
Meteor 2-20 Rocket 4.3 17:27:21 10° S 17:33:29 70° E 17:39:18 11° NNE
SL-16 R/B 3.8 17:28:00 10° N 17:33:42 39° WNW 17:39:21 10° SW
Cosmos 990 Rocket 4.5 17:29:38 10° SW 17:34:42 58° WNW 17:38:14 20° NNE
CZ-2D R/B 3.3 17:30:41 10° SSE 17:34:51 90° S 17:39:00 10° NNW
Cosmos 1461 4.0 17:31:41 10° W 17:35:16 33° NW 17:36:23 27° N
Cosmos 1244 Rocket 4.4 17:29:57 10° N 17:36:17 85° E 17:42:30 10° S
SKYMED 2 3.4 17:35:14 49° NE 17:36:18 70° ESE 17:40:38 10° S
COSMOS 2455 3.7 17:34:01 10° S 17:38:36 31° ESE 17:38:36 31° ESE
Meteor 2-2 Rocket 4.1 17:33:47 10° S 17:39:21 69° E 17:42:46 24° NNE
Okean 1 4.1 17:36:09 10° S 17:38:21 34° S 17:38:21 34° S
Cosmos 494 Rocket 4.0 17:37:29 10° NNW 17:42:39 52° ENE 17:42:50 52° ENE
Cosmos 2219 3.7 17:39:19 10° NW 17:44:58 61° WSW 17:50:36 10° SSE
Cosmos 1844 Rocket 2.7 17:39:27 10° NNW 17:45:02 55° NE 17:45:49 51° E
Cosmos 1980 Rocket 2.1 17:41:25 10° SSW 17:47:05 89° WNW 17:49:21 39° NNE
SL-08 R/B 4.4 17:41:06 10° N 17:47:29 86° E 17:53:50 10° S
Aureole 1 Rocket 3.5 17:44:10 10° SSW 17:48:57 83° WNW 17:51:47 32° NNE
Meteor 1-26 Rocket 4.0 17:44:35 10° S 17:49:58 83° E 17:52:49 29° NNE
PSLV R/B 3.3 17:49:59 51° S 17:50:57 85° WSW 17:55:03 10° NNW
Cosmos 1386 Rocket 4.3 17:45:14 10° N 17:51:20 71° ENE 17:57:30 10° SSE
Cosmos 2263 Rocket 3.6 17:47:45 10° NW 17:52:58 38° WSW 17:58:10 10° S
ARIANE 5 R/B 4.4 17:48:52 10° SSW 17:53:18 30° W 17:57:51 10° NNW
SL-19 R/B 4.2 17:48:23 10° SSE 17:53:51 85° WSW 17:59:41 10° NNW
COSMO-SKYMED 1 3.4 17:59:08 38° S 17:59:08 38° S 18:01:45 10° S
NOSS 3-2 (A) 4.5 17:53:14 10° W 17:58:26 35° NNW 18:00:32 28° NNE
Cosmos 1680 Rocket 3.4 17:53:16 10° NNW 17:58:31 89° NE 18:00:24 41° SSE
NOSS 3-2 (C) 4.1 17:55:54 10° W 18:01:09 46° NNW 18:03:20 33° NNE
NOAA 6 3.9 17:58:06 10° SSE 18:03:13 85° WSW 18:08:21 10° NNW
Cosmos 2369 3.6 17:59:02 10° SSW 18:04:44 76° ESE 18:05:20 69° ENE
Cosmos 967 Rocket 4.5 17:59:03 10° SSW 18:05:17 60° ESE 18:05:43 59° ESE
Cosmos 1943 Rocket 4.2 18:02:26 10° NNW 18:04:11 14° N 18:04:11 14° N
Resurs 01 Rocket 3.9 18:11:53 14° N 18:11:53 14° N 18:12:34 10° N
Cosmos 44 Rocket 3.3 18:07:02 10° NW 18:11:53 79° NNW 18:11:53 79° NNW
Cosmos 2369 Rocket 4.5 18:18:28 10° NNW 18:20:26 12° N 18:20:47 12° N
Cosmos 2058 Rocket 4.4 18:20:56 10° SW 18:25:07 38° WNW 18:26:26 31° NNW
USA 281 4.2 18:28:12 32° NNE 18:28:12 32° NNE 18:32:21 10° NNW
Cosmos 1697 Rocket 4.2 18:22:10 10° WSW 18:27:08 31° NW 18:29:16 24° N
Cosmos 2333 Rocket 4.4 18:29:06 10° S 18:29:35 12° S 18:29:35 12° S
CENTAUR R/B 3.7 18:28:20 10° WNW 18:34:50 37° N 18:35:36 36° NNE
Lacrosse 5 rocket 3.7 18:31:27 10° WNW 18:32:26 17° WNW 18:32:26 17° WNW
Cosmos 2278 Rocket 4.3 18:31:11 10° NNW 18:32:43 15° N 18:32:43 15° N
Cosmos 1844 4.4 18:50:18 10° NW 18:54:37 48° WNW 18:54:37 48° WNW
USA 215 3.4 18:59:28 68° NW 18:59:28 68° NW 19:05:12 10° WNW
USA 238 DEB 4.1 18:56:09 10° WSW 19:02:15 53° NNW 19:02:15 53° NNW
USA 238 4.1 18:56:15 10° WSW 19:02:21 54° NW 19:02:21 54° NW
SL-16 R/B 4.3 19:09:59 10° SSW 19:11:20 18° SW 19:11:20 18° SW
COSMOS 2455 4.3 19:18:47 10° SW 19:21:46 30° WSW 19:21:46 30° WSW
Cosmos 1844 Rocket 4.3 19:23:41 10° NW 19:27:31 30° W 19:27:31 30° W
Cosmos 1980 Rocket 4.1 19:27:14 10° W 19:31:07 24° NW 19:31:07 24° NW
